GW4937 Weather Reports


Display with metric or nautical units.
time (UTC)temp
F
wind
direction
speed
MPH
gust
MPH
rain 1hr
in
rain 24hr
in
rain mn
in
humidity
%
barometer
mb
20260502152212 45 301 6.0 8.0 0.00 0.00 0.00 55 1017.7
20260502151709 45 331 5.0 9.0 0.00 0.00 0.00 56 1017.4
20260502151206 45 198 4.0 8.0 0.00 0.00 0.00 53 1017.7
20260502150703 45 330 1.0 8.0 0.00 0.00 0.00 56 1017.7
20260502150200 45 313 4.0 9.0 0.00 0.00 0.00 55 1017.4
20260502140123 45 309 8.0 10.0 0.00 0.00 0.00 60 1017.5
20260502130548 40 278 2.0 4.0 0.00 0.00 0.00 79 1017.5
20260502123532 39 254 2.0 3.0 0.00 0.00 0.00 83 1017.4
20260502123028 39 286 2.0 4.0 0.00 0.00 0.00 83 1017.3
20260502122525 39 264 2.0 2.0 0.00 0.00 0.00 84 1017.5
20260502122023 38 285 2.0 3.0 0.00 0.00 0.00 85 1017.4
20260502121520 38 241 2.0 3.0 0.00 0.00 0.00 85 1017.3
20260502121017 38 268 1.0 2.0 0.00 0.00 0.00 86 1017.2
20260502120513 38 311 0.0 3.0 0.00 0.00 0.00 87 1017.1
20260502115508 38 261 2.0 2.0 0.00 0.00 0.00 88 1017.1
20260502115004 37 264 1.0 2.0 0.00 0.00 0.00 90 1017.4
20260502114501 37 227 0.0 0.0 0.00 0.00 0.00 92 1017.2
20260502113958 36 227 0.0 0.0 0.00 0.00 0.00 94 1017.2
20260502113455 36 227 0.0 0.0 0.00 0.00 0.00 95 1017.2
20260502112954 35 227 0.0 0.0 0.00 0.00 0.00 96 1017.2
20260502112450 35 227 0.0 0.0 0.00 0.00 0.00 96 1017.1
20260502111948 35 227 0.0 0.0 0.00 0.00 0.00 96 1017.2
20260502111445 35 227 0.0 0.0 0.00 0.00 0.00 96 1017.2
20260502110943 34 227 0.0 0.0 0.00 0.00 0.00 96 1017.0
20260502110440 34 227 0.0 0.0 0.00 0.00 0.00 96 1017.1
20260502105937 34 227 0.0 0.0 0.00 0.00 0.00 96 1017.1
20260502105434 34 227 0.0 1.0 0.00 0.00 0.00 96 1016.8
20260502104932 34 227 0.0 0.0 0.00 0.00 0.00 95 1016.8
20260502104430 34 227 0.0 0.0 0.00 0.00 0.00 95 1016.8
20260502103927 34 227 0.0 0.0 0.00 0.00 0.00 94 1016.8
20260502103424 35 277 0.0 0.0 0.00 0.00 0.00 94 1017.0
20260502102921 35 277 0.0 0.0 0.00 0.00 0.00 93 1017.2
20260502102418 35 278 0.0 0.0 0.00 0.00 0.00 93 1017.2
20260502101915 35 278 0.0 0.0 0.00 0.00 0.00 93 1017.1
20260502101414 35 278 0.0 0.0 0.00 0.00 0.00 92 1017.4
20260502100911 35 278 0.0 0.0 0.00 0.00 0.00 92 1017.1
20260502100410 35 278 0.0 0.0 0.00 0.00 0.00 92 1017.1
20260502091343 37 259 1.0 2.0 0.00 0.00 0.00 85 1017.4
20260502090841 37 259 1.0 2.0 0.00 0.00 0.00 84 1017.2
20260502090338 37 253 1.0 1.0 0.00 0.00 0.00 84 1017.5
20260502071233 40 266 2.0 6.0 0.00 0.00 0.00 76 1017.2
20260502070731 40 249 2.0 3.0 0.00 0.00 0.00 76 1017.3
20260502070228 40 307 3.0 4.0 0.00 0.00 0.00 75 1017.4
20260502065726 41 255 3.0 4.0 0.00 0.00 0.00 74 1017.2
20260502065224 41 271 3.0 6.0 0.00 0.00 0.00 73 1017.4
20260502064723 41 273 2.0 2.0 0.00 0.00 0.00 73 1017.4
20260502064220 41 254 1.0 3.0 0.00 0.00 0.00 72 1017.2
20260502063717 41 301 3.0 3.0 0.00 0.00 0.00 70 1017.2
20260502063215 41 266 2.0 2.0 0.00 0.00 0.00 72 1017.3
20260502062712 41 281 0.0 1.0 0.00 0.00 0.00 71 1017.4
20260502062209 41 278 1.0 2.0 0.00 0.00 0.00 69 1017.5
20260502061708 41 292 1.0 3.0 0.00 0.00 0.00 70 1017.8
20260502061205 42 301 1.0 2.0 0.00 0.00 0.00 70 1017.5
20260502060700 42 321 2.0 3.0 0.00 0.00 0.00 68 1017.5
20260502060157 42 323 2.0 3.0 0.00 0.00 0.00 68 1017.5
20260502055654 42 283 2.0 3.0 0.00 0.00 0.00 69 1017.5
20260502055152 42 276 2.0 4.0 0.00 0.00 0.00 70 1017.8
20260502054651 42 291 3.0 4.0 0.00 0.00 0.00 69 1017.5
20260502054148 42 272 0.0 1.0 0.00 0.00 0.00 72 1017.5
20260502053645 42 285 1.0 4.0 0.00 0.00 0.00 72 1017.5
20260502053142 42 263 3.0 6.0 0.00 0.00 0.00 72 1017.8
20260502052641 42 307 4.0 6.0 0.00 0.00 0.00 72 1017.7
20260502052138 42 258 2.0 6.0 0.00 0.00 0.00 72 1017.9
20260502051636 43 307 2.0 6.0 0.00 0.00 0.00 75 1017.5
20260502051134 43 260 2.0 6.0 0.00 0.00 0.00 76 1017.7
20260502050630 43 321 5.0 9.0 0.00 0.00 0.00 74 1017.7
20260502050127 43 267 5.0 10.0 0.00 0.00 0.00 75 1017.9
20260502045623 43 287 5.0 10.0 0.00 0.00 0.00 74 1017.9
20260502045121 43 282 4.0 9.0 0.00 0.00 0.00 80 1018.0
20260502044617 43 259 4.0 6.0 0.00 0.00 0.00 79 1017.9
20260502044114 43 287 11.0 14.0 0.00 0.00 0.00 79 1017.8
20260502043612 43 276 6.0 8.0 0.00 0.00 0.00 78 1017.9
20260502043108 43 239 5.0 10.0 0.00 0.00 0.00 79 1018.0
20260502042608 44 277 4.0 9.0 0.00 0.00 0.00 79 1017.8
20260502042106 44 293 8.0 15.0 0.00 0.00 0.00 82 1017.8
20260502041603 44 292 4.0 7.0 0.00 0.00 0.00 83 1017.9
20260502041100 44 231 4.0 6.0 0.00 0.00 0.00 83 1017.8
20260502040557 44 282 3.0 3.0 0.00 0.00 0.00 83 1017.8
20260502040055 44 33 0.0 6.0 0.00 0.00 0.00 82 1017.7
20260502035550 44 289 2.0 6.0 0.00 0.00 0.00 82 1017.8
20260502035048 45 306 3.0 7.0 0.00 0.00 0.00 81 1017.5
20260502034545 45 284 1.0 3.0 0.00 0.00 0.00 82 1017.7
20260502034044 45 264 2.0 4.0 0.00 0.00 0.00 82 1017.7
20260502033542 45 225 2.0 3.0 0.00 0.00 0.00 81 1017.8
20260502033038 45 314 6.0 7.0 0.00 0.00 0.00 81 1017.9
20260502032534 45 335 3.0 7.0 0.00 0.00 0.00 80 1017.7
20260502032031 45 272 2.0 3.0 0.00 0.00 0.00 81 1017.9
20260502031529 45 241 2.0 7.0 0.00 0.00 0.00 80 1017.9
20260502031027 45 228 5.0 7.0 0.00 0.00 0.00 80 1017.9
20260502030526 45 248 4.0 8.0 0.00 0.00 0.00 79 1017.7
20260502030023 45 266 3.0 4.0 0.00 0.00 0.00 78 1017.9
20260502025520 45 263 5.0 9.0 0.00 0.00 0.00 78 1018.0
20260502025018 45 235 2.0 8.0 0.00 0.00 0.00 78 1017.9
20260502024515 45 313 4.0 11.0 0.00 0.00 0.00 77 1017.7
20260502024014 46 295 2.0 7.0 0.00 0.00 0.00 77 1017.4
20260502023511 46 284 1.0 7.0 0.00 0.00 0.00 77 1017.4
20260502023008 46 282 2.0 4.0 0.00 0.00 0.00 77 1017.7
20260502022505 46 286 2.0 4.0 0.00 0.00 0.00 77 1017.3
20260502022002 46 235 1.0 6.0 0.00 0.00 0.00 75 1017.3
20260502021459 46 244 1.0 4.0 0.00 0.00 0.00 75 1017.2
20260502020955 46 190 4.0 8.0 0.00 0.00 0.00 75 1017.3
20260502020454 46 234 3.0 7.0 0.00 0.00 0.00 75 1017.5
20260502015950 46 271 7.0 11.0 0.00 0.00 0.00 75 1017.2
20260502015448 46 244 6.0 8.0 0.00 0.00 0.00 75 1017.0
20260502014944 46 281 3.0 7.0 0.00 0.00 0.00 76 1016.9
20260502014441 47 302 3.0 7.0 0.00 0.00 0.00 75 1016.6
20260502013938 47 279 3.0 7.0 0.00 0.00 0.00 76 1017.0
20260502013433 47 343 4.0 6.0 0.00 0.00 0.00 75 1016.7
20260502012930 47 267 2.0 6.0 0.00 0.00 0.00 75 1016.6
20260502012428 47 275 3.0 6.0 0.00 0.00 0.00 77 1016.5
20260502011925 47 287 5.0 8.0 0.00 0.00 0.00 76 1016.5
20260502011421 48 277 4.0 11.0 0.00 0.00 0.00 76 1016.4
20260502010919 48 310 3.0 8.0 0.00 0.00 0.00 77 1016.4
20260502010415 48 292 2.0 3.0 0.00 0.00 0.00 77 1016.5
20260502005911 48 289 3.0 7.0 0.00 0.00 0.00 78 1016.3
20260502005410 48 291 1.0 2.0 0.00 0.00 0.00 78 1016.0
20260502004907 48 307 2.0 4.0 0.00 0.00 0.00 77 1016.0
20260502004403 49 282 3.0 3.0 0.00 0.00 0.00 78 1015.9
20260502003900 49 213 0.0 4.0 0.00 0.00 0.00 78 1015.8
20260502003358 49 269 3.0 3.0 0.00 0.00 0.00 78 1015.9
20260502002853 49 261 3.0 8.0 0.00 0.00 0.00 78 1015.6
20260502002351 49 254 1.0 7.0 0.00 0.00 0.00 78 1015.6
20260502001848 49 261 5.0 9.0 0.00 0.00 0.00 78 1015.5
20260502001346 49 285 7.0 9.0 0.00 0.00 0.00 78 1015.5
20260502000843 49 281 2.0 3.0 0.00 0.00 0.00 78 1015.3
20260502000341 49 290 2.0 8.0 0.00 0.00 0.00 77 1015.3
20260501235837 49 343 2.0 7.0 0.00 0.00 0.00 76 1015.1
20260501235333 49 140 2.0 7.0 0.00 0.00 0.00 76 1015.1
20260501234828 50 214 4.0 8.0 0.00 0.00 0.00 75 1015.2
20260501234325 50 260 2.0 3.0 0.00 0.00 0.00 74 1014.8
20260501233824 50 253 3.0 11.0 0.00 0.00 0.00 73 1014.6
20260501233321 52 239 6.0 10.0 0.00 0.00 0.00 69 1014.6
20260501232817 52 309 6.0 8.0 0.00 0.00 0.00 69 1014.4
20260501232314 52 300 4.0 11.0 0.00 0.00 0.00 67 1014.3
20260501231811 53 240 5.0 7.0 0.00 0.00 0.00 66 1014.2
20260501231309 53 265 3.0 9.0 0.00 0.00 0.00 64 1014.2
20260501230808 56 316 3.0 9.0 0.00 0.00 0.00 58 1014.1
20260501230306 56 40 3.0 9.0 0.00 0.00 0.00 54 1013.9
20260501225803 57 273 6.0 8.0 0.00 0.00 0.00 48 1013.9
20260501225301 57 262 5.0 7.0 0.00 0.00 0.00 46 1013.8
20260501224756 58 323 6.0 10.0 0.00 0.00 0.00 46 1013.9
20260501224254 59 224 1.0 6.0 0.00 0.00 0.00 43 1013.9
20260501223750 59 282 7.0 14.0 0.00 0.00 0.00 44 1013.8
20260501223246 60 326 6.0 8.0 0.00 0.00 0.00 41 1013.8
20260501222742 59 176 3.0 4.0 0.00 0.00 0.00 44 1013.7
20260501222240 59 125 3.0 6.0 0.00 0.00 0.00 41 1013.9
20260501221737 60 284 1.0 2.0 0.00 0.00 0.00 44 1013.5
20260501221234 60 266 5.0 7.0 0.00 0.00 0.00 39 1013.5
20260501220731 59 305 6.0 7.0 0.00 0.00 0.00 40 1013.7
20260501220229 59 251 2.0 7.0 0.00 0.00 0.00 41 1013.8
20260501215726 59 153 7.0 9.0 0.00 0.00 0.00 39 1013.7
20260501215221 60 90 1.0 4.0 0.00 0.00 0.00 41 1013.8
20260501214716 60 243 1.0 6.0 0.00 0.00 0.00 37 1013.5
20260501214213 61 163 1.0 8.0 0.00 0.00 0.00 39 1014.0
20260501213709 60 265 1.0 9.0 0.00 0.00 0.00 39 1013.7
20260501213205 60 306 5.0 9.0 0.00 0.00 0.00 37 1013.5
20260501212701 62 204 4.0 9.0 0.00 0.00 0.00 35 1013.4
20260501212158 62 305 4.0 13.0 0.00 0.00 0.00 34 1013.7
20260501211655 63 127 6.0 8.0 0.00 0.00 0.00 34 1013.9
20260501211153 62 133 6.0 7.0 0.00 0.00 0.00 32 1013.8
20260501210649 62 288 6.0 10.0 0.00 0.00 0.00 35 1013.8
20260501210146 62 268 6.0 13.0 0.00 0.00 0.00 34 1013.8
20260501205642 61 139 3.0 7.0 0.00 0.00 0.00 35 1013.7
20260501205140 61 155 2.0 7.0 0.00 0.00 0.00 35 1013.7
20260501204636 61 271 5.0 11.0 0.00 0.00 0.00 35 1013.9
20260501204132 62 314 6.0 10.0 0.00 0.00 0.00 36 1013.8
20260501203629 61 294 5.0 9.0 0.00 0.00 0.00 32 1014.0
20260501203127 63 281 3.0 11.0 0.00 0.00 0.00 34 1013.8
20260501202623 63 258 4.0 11.0 0.00 0.00 0.00 35 1013.8
20260501202120 62 131 3.0 8.0 0.00 0.00 0.00 35 1013.9
20260501201618 63 220 3.0 7.0 0.00 0.00 0.00 33 1013.9
20260501201114 63 262 5.0 8.0 0.00 0.00 0.00 36 1013.8
20260501200611 62 238 6.0 8.0 0.00 0.00 0.00 32 1013.7
20260501200108 62 120 4.0 8.0 0.00 0.00 0.00 31 1014.0
20260501195606 62 117 2.0 14.0 0.00 0.00 0.00 32 1013.8
20260501195101 63 249 4.0 7.0 0.00 0.00 0.00 40 1013.9
20260501194557 63 275 5.0 11.0 0.00 0.00 0.00 31 1013.9
20260501194053 62 253 6.0 11.0 0.00 0.00 0.00 28 1013.9
20260501193550 63 315 6.0 9.0 0.00 0.00 0.00 26 1013.8
20260501193049 62 272 8.0 9.0 0.00 0.00 0.00 30 1013.9
20260501192545 62 249 6.0 14.0 0.00 0.00 0.00 32 1014.1
20260501192043 63 323 8.0 15.0 0.00 0.00 0.00 27 1014.1
20260501191540 62 295 5.0 11.0 0.00 0.00 0.00 28 1014.0
20260501191037 63 127 4.0 10.0 0.00 0.00 0.00 26 1014.2
20260501190532 63 156 3.0 6.0 0.00 0.00 0.00 36 1014.4
20260501190028 63 118 7.0 14.0 0.00 0.00 0.00 27 1014.1
20260501185525 62 273 3.0 6.0 0.00 0.00 0.00 30 1014.2
20260501185021 62 126 6.0 11.0 0.00 0.00 0.00 34 1014.3
20260501184517 62 142 6.0 8.0 0.00 0.00 0.00 31 1014.4
20260501184017 62 142 1.0 3.0 0.00 0.00 0.00 38 1014.3
20260501183515 63 301 1.0 8.0 0.00 0.00 0.00 29 1014.3
20260501183011 62 117 5.0 8.0 0.00 0.00 0.00 29 1014.3
20260501182508 61 266 9.0 17.0 0.00 0.00 0.00 29 1014.2
20260501182004 61 118 2.0 11.0 0.00 0.00 0.00 34 1014.4
20260501181502 62 124 4.0 9.0 0.00 0.00 0.00 28 1014.5
20260501180959 62 123 4.0 8.0 0.00 0.00 0.00 34 1014.5
20260501180456 62 269 6.0 14.0 0.00 0.00 0.00 26 1014.3
20260501175952 62 256 5.0 15.0 0.00 0.00 0.00 28 1014.5
20260501175449 62 192 1.0 13.0 0.00 0.00 0.00 37 1014.5
20260501174945 61 307 5.0 10.0 0.00 0.00 0.00 28 1014.4
20260501174443 61 123 10.0 13.0 0.00 0.00 0.00 26 1014.3
20260501173941 60 133 9.0 13.0 0.00 0.00 0.00 25 1014.6
20260501173438 61 104 9.0 16.0 0.00 0.00 0.00 26 1014.6
20260501172934 60 118 3.0 7.0 0.00 0.00 0.00 34 1014.5
20260501172430 60 138 3.0 10.0 0.00 0.00 0.00 26 1014.6
20260501171925 59 247 2.0 15.0 0.00 0.00 0.00 32 1014.7
20260501171422 60 113 4.0 8.0 0.00 0.00 0.00 26 1014.8
20260501170918 61 226 4.0 13.0 0.00 0.00 0.00 30 1014.7
20260501170415 60 97 4.0 10.0 0.00 0.00 0.00 28 1014.6
20260501165913 60 127 3.0 6.0 0.00 0.00 0.00 38 1014.7
20260501165411 59 261 7.0 11.0 0.00 0.00 0.00 31 1014.7
20260501164908 59 211 4.0 9.0 0.00 0.00 0.00 39 1014.7
20260501164406 59 147 7.0 9.0 0.00 0.00 0.00 31 1015.0
20260501163902 59 123 5.0 9.0 0.00 0.00 0.00 33 1015.1
20260501163358 60 196 4.0 4.0 0.00 0.00 0.00 35 1015.0
20260501162855 59 144 2.0 6.0 0.00 0.00 0.00 44 1015.2
20260501162352 58 140 1.0 4.0 0.00 0.00 0.00 38 1015.2
20260501161849 58 130 2.0 9.0 0.00 0.00 0.00 40 1015.2
20260501161345 57 127 4.0 7.0 0.00 0.00 0.00 39 1015.3
20260501160842 58 135 4.0 6.0 0.00 0.00 0.00 39 1015.5
20260501160339 57 131 2.0 8.0 0.00 0.00 0.00 52 1015.5
20260501155837 57 267 3.0 6.0 0.00 0.00 0.00 39 1015.5
20260501155333 56 172 1.0 9.0 0.00 0.00 0.00 44 1015.7